Regional Weather Roundup
Issued by NWS Wilmington, NC

Home | Current Version | Previous Version | Text Only | Print | Product List | Glossary On
Versions: 1 2 3 4 5 6 7 8 9 10 11 12 13 14 15 16 17 18 19 20 21 22 23 24 25 26 27 28 29 30 31 32 33 34 35 36 37 38 39 40 41 42 43 44 45 46 47 48 49 50
000
ASUS42 KILM 022113
RWRILM
RWRILM
REGIONAL HOURLY WEATHER ROUNDUP
NATIONAL WEATHER SERVICE WILMINGTON NC
500 PM EDT WED SEP 02 2015

NOTE: "FAIR" INDICATES FEW OR NO CLOUDS BELOW 12,000 FEET WITH NO
SIGNIFICANT WEATHER AND/OR OBSTRUCTIONS TO VISIBILITY.

...............WFO WILMINGTON COUNTY WARNING AREA...............

......COASTAL NC AND SC COUNTIES......

CITY           SKY/WX    TMP DP  RH WIND       PRES   REMARKS
WILMINGTON     FAIR      88  73  61 S8        29.97F HX  95
N MYRTLE BEACH FAIR      87  72  60 S10       29.98F HX  93
MYRTLE BEACH   SUNNY     90  72  55 S13       30.01F HX  96

......INLAND NC AND SC COUNTIES.......

CITY           SKY/WX    TMP DP  RH WIND       PRES   REMARKS
LUMBERTON      FAIR      93  68  43 S5        29.96F HX  97
ELIZABETHTOWN  FAIR      92  62  36 CALM      29.97F HX  93
WHITEVILLE     FAIR      90  67  45 CALM      29.97F HX  93
FLORENCE       FAIR      92  66  42 S6        29.98F HX  94
DARLINGTON     FAIR      91  66  43 S5        29.99F HX  94

....................REST OF NORTH CAROLINA......................

.........EASTERN NC.........

CITY           SKY/WX    TMP DP  RH WIND       PRES   REMARKS
CAPE HATTERAS  FAIR      82  71  69 VRB3      29.98F
JACKSONVILLE   FAIR      91  64  40 W3        29.97F HX  93
MOREHEAD CITY  FAIR      83  76  79 S7        29.98F HX  91
KENANSVILLE      N/A     91  64  40 CALM      29.98F HX  91
NEW BERN       FAIR      90  67  46 SW6       29.97F HX  93
ELIZABETH CITY FAIR      89  67  47 S8        29.95F HX  92

.........CENTRAL NC.........

CITY           SKY/WX    TMP DP  RH WIND       PRES   REMARKS
RALEIGH DURHAM PTSUNNY   92  68  45 SW10      29.97F HX  96
ROCKY MOUNT    PTSUNNY   90  71  53 N6        29.96F HX  96
ROANOKE RAPIDS NOT AVBL
FAYETTEVILLE   PTSUNNY   93  67  42 S8        29.96F HX  96
HOFFMAN        PTSUNNY   92  64  39 SW7       29.97F HX  94

.........WESTERN NC.........

CITY           SKY/WX    TMP DP  RH WIND       PRES   REMARKS
CHARLOTTE      PTSUNNY   92  62  36 SW7       30.00F HX  92
GREENSBORO     PTSUNNY   91  61  36 W7        29.99F HX  91
HICKORY        NOT AVBL
BOONE          NOT AVBL
ASHEVILLE      NOT AVBL

.....................REST OF SOUTH CAROLINA.....................

.........EASTERN SC.........

CITY           SKY/WX    TMP DP  RH WIND       PRES   REMARKS
CHARLESTON     PTSUNNY   86  71  60 S9        30.00F HX  91
BEAUFORT MCAS  PTSUNNY   81  75  82 SW8       30.01F
HILTON HEAD    PTSUNNY   77  73  88 SW3       30.02F

.........CENTRAL SC.........

CITY           SKY/WX    TMP DP  RH WIND       PRES   REMARKS
COLUMBIA       PTSUNNY   93  67  42 VRB3      29.98F HX  96
ORANGEBURG     FAIR      92  65  40 W3        29.99F HX  94
SUMTER SHAW    FAIR      92  67  44 S6        29.97F HX  95

.........WESTERN SC.........

CITY           SKY/WX    TMP DP  RH WIND       PRES   REMARKS
GREENVILLE     NOT AVBL
ROCK HILL      FAIR      93  62  35 VRB5      29.99F HX  93
ANDERSON       FAIR      89  67  47 S9        30.02F HX  92
CLEMSON        NOT AVBL
GREENWOOD      FAIR      89  67  47 SW5       30.03F HX  92


...................COASTAL AND OFFSHORE REPORTS..................

................LOCAL PIERS AND NC RESERVE................


STATION/POSITION TIME  SKY/WX   TEMP    WIND        PRES    VSBY
                                AIR SEA DIR/SP/G
                 (UTC)          (F)     (DEG/KT/KT) (MB)    (MI)
JOHNY MRCER PIER 2000            84 85  180/ 11/ 12 1015.3F
NC RESRV MASNBRO NOT AVBL
OCEAN CREST PIER NOT AVBL
SPRINGMAID  PIER 2000            83 84  170/ 13/ 14 1016.3F


................COASTAL AND OFFSHORE BUOYS................


STATION/POSITION TIME  SKY/WX   TEMP    WIND        PRES    VSBY
                                AIR SEA DIR/SP/G
                 (UTC)          (F)     (DEG/KT/KT) (MB)    (MI)
DIMNDSHOAL 41025 2050            83 86  310/  2/  4 1015.5
WVE H/P(F/S)=  2/ 8 SWL H/P/D(F/S/D)=  2/110/ 8

CAPE LOOKOUT     2100            82     150/  5/  6 1015.0F
ONSLOW BAY 41036 NOT AVBL
ONSLOW BAY 41064 2008            83 82  230/  4/  6 1016.1F
ONSLOW BAY 41159 2025               85                N/A
WVE H/P(F/S)=  2/ 9 WND WVE H/P(F/S)=  2/ 9

5SE WRITBC 41038 2008            83 83  210/ 10/ 14 1015.7
MASNBO INL 41110 2019               83                N/A
WVE H/P(F/S)=  2/ 9 WND WVE H/P(F/S)=  2/ 9

WILM HARBR 41108 2011               84                N/A
WVE H/P(F/S)=  2/ 8 WND WVE H/P(F/S)=  2/ 8

27SE WRITB 41037 2000            80 83  240/  6/  8   N/A
FRYING PAN 41013 2050            83 82  220/  8/  8 1016.1F
WVE H/P(F/S)=  2/ 9 SWL H/P/D(F/S/D)=  2/130/ 9

SUNST NRSH 41024 2008            83     220/ 10/ 14 1015.7
CAPRS NRSH 41029 2008            83     190/  8/ 10 1016.7F
EDISTO     41004 2050            83 86  230/  4/  6 1015.9F
WVE H/P(F/S)=  2/ 9 SWL H/P/D(F/S/D)=  2/ 9



..........OFFSHORE BUOYS BEYOND 100 NM OFFSHORE...........
.....IN A TRIANGLE---HAT TO BERMUDA TO BAHAMAS TO HAT.....


STATION/POSITION TIME  SKY/WX   TEMP    WIND        PRES    VSBY
                                AIR SEA DIR/SP/G
                 (UTC)          (F)     (DEG/KT/KT) (MB)    (MI)
150E HAT   41001 2100            81 83  320/  2/  4 1014.6F
W BERMUDA  41048 2050            82 84  270/ 10/ 14 1013.6F
WVE H/P(F/S)=  3/ 5 WND WVE H/P(F/S)=  2/ 5 SWL H/P/D(F/S/D)=  2/290/ 6

ATLANTIC S 41049 2050            84 86  320/  8/ 10 1015.4F
WVE H/P(F/S)=  3/ 7 WND WVE H/P(F/S)=  2/ 3 SWL H/P/D(F/S/D)=  3/ 50/ 7

E BAHAMAS  41046 2050            85 88   90/  2/  4 1016.0F
WVE H/P(F/S)=  3/ 8 WND WVE H/P(F/S)=  2/ 4 SWL H/P/D(F/S/D)=  2/ 60/ 8

NE BAHAMAS 41047 2050            88 90   CALM  /  2 1016.0F
WVE H/P(F/S)=  2/13 SWL H/P/D(F/S/D)=  2/ 80/13

120E CANVRL41010 2020            85 88  300/  6/  6 1017.1F

END


USA.gov is the U.S. government's official web portal to all federal, state and local government web resources and services.